Location: Catenanuova
(37.5690°N, 14.6870°E)
Time: 21:49:09
(UTC+02:00)

BlueWalker 3 - Pass Details

Date: 15 May 2025
Orbit: 460 x 472 km, 53.2° (Epoch: 16 June)

Event Time Altitude Azimuth Distance (km) Brightness Sun altitude
Rises 23:37:25 0° 323° (NW) 2,496 6.6 -30.3°
Reaches altitude 10° 23:40:06 10° 343° (NNW) 1,621 5.4 -30.5°
Enters shadow 23:41:33 16° 5° (N) 1,306 4.7 -30.6°
